• în România
  • Lista ţărilor
  • Pe 7 zile
  • Temperatura apei
  • Hartă satelitară
  • Meteo pe hartă
  • Widget-uri
  • user-avatar
    Intrare

    Meteo pe oră la Lincoln

    Astăzi, 18 August, Sâmbătă

    Timp Temperatura Precipitaţii Vânt Presiune Umiditate
    00:00 +16°C° 0 mm 5 m/s 758 mmHg 82%
    01:00 +15°C° 0 mm 5 m/s 758 mmHg 84%
    02:00 +15°C° 0 mm 5 m/s 758 mmHg 86%
    03:00 +15°C° 0 mm 5 m/s 758 mmHg 87%
    04:00 +15°C° 0 mm 5 m/s 758 mmHg 87%
    05:00 +15°C° 0 mm 5 m/s 758 mmHg 87%
    06:00 +15°C° 0 mm 5 m/s 758 mmHg 87%
    07:00 +16°C° 0 mm 5 m/s 758 mmHg 81%
    08:00 +19°C° 0 mm 5 m/s 758 mmHg 75%
    09:00 +20°C° 0 mm 5 m/s 758 mmHg 69%
    10:00 +21°C° 0 mm 5 m/s 758 mmHg 67%
    11:00 +22°C° 0 mm 6 m/s 759 mmHg 65%
    12:00 +22°C° 0 mm 6 m/s 759 mmHg 63%
    13:00 +23°C° 0 mm 6 m/s 759 mmHg 62%
    14:00 +23°C° 0 mm 6 m/s 759 mmHg 62%
    15:00 +23°C° 0 mm 6 m/s 759 mmHg 61%
    16:00 +23°C° 0 mm 5 m/s 759 mmHg 63%
    17:00 +22°C° 0 mm 5 m/s 759 mmHg 65%
    18:00 +22°C° 0 mm 5 m/s 758 mmHg 67%
    19:00 +21°C° 0 mm 4 m/s 759 mmHg 72%
    20:00 +20°C° 0 mm 4 m/s 759 mmHg 77%
    21:00 +19°C° 0 mm 3 m/s 759 mmHg 81%
    22:00 +19°C° 0 mm 3 m/s 759 mmHg 84%
    23:00 +18°C° 0 mm 3 m/s 759 mmHg 86%

    Mâine, 19 August, Duminică

    Timp Temperatura Precipitaţii Vânt Presiune Umiditate
    00:00 +18°C° 0 mm 3 m/s 759 mmHg 89%
    01:00 +18°C° 0 mm 4 m/s 759 mmHg 89%
    02:00 +18°C° 0 mm 4 m/s 758 mmHg 90%
    03:00 +17°C° 0 mm 5 m/s 758 mmHg 91%
    04:00 +17°C° 0,2 mm 5 m/s 758 mmHg 90%
    05:00 +19°C° 0,2 mm 6 m/s 757 mmHg 88%
    06:00 +19°C° 0,2 mm 6 m/s 757 mmHg 87%
    07:00 +18°C° 0,1 mm 7 m/s 757 mmHg 84%
    08:00 +20°C° 0,1 mm 7 m/s 757 mmHg 80%
    09:00 +20°C° 0,1 mm 8 m/s 757 mmHg 76%
    10:00 +21°C° 0 mm 8 m/s 757 mmHg 74%
    11:00 +22°C° 0 mm 8 m/s 756 mmHg 72%
    12:00 +22°C° 0 mm 8 m/s 756 mmHg 70%
    13:00 +23°C° 0 mm 7 m/s 756 mmHg 69%
    14:00 +23°C° 0 mm 7 m/s 756 mmHg 67%
    15:00 +23°C° 0 mm 7 m/s 756 mmHg 65%
    16:00 +23°C° 0 mm 7 m/s 756 mmHg 67%
    17:00 +22°C° 0 mm 7 m/s 756 mmHg 69%
    18:00 +22°C° 0 mm 6 m/s 757 mmHg 71%
    19:00 +21°C° 0 mm 6 m/s 757 mmHg 74%
    20:00 +20°C° 0 mm 5 m/s 757 mmHg 78%
    21:00 +19°C° 0 mm 4 m/s 758 mmHg 81%
    22:00 +19°C° 0 mm 4 m/s 758 mmHg 83%
    23:00 +19°C° 0 mm 4 m/s 758 mmHg 85%

    Poimâine, 20 August, Luni

    Timp Temperatura Precipitaţii Vânt Presiune Umiditate
    00:00 +18°C° 0 mm 4 m/s 758 mmHg 86%
    01:00 +18°C° 0 mm 4 m/s 758 mmHg 88%
    02:00 +17°C° 0 mm 3 m/s 758 mmHg 90%
    03:00 +17°C° 0 mm 3 m/s 758 mmHg 91%
    04:00 +17°C° 0 mm 2 m/s 758 mmHg 91%
    05:00 +17°C° 0 mm 2 m/s 759 mmHg 90%
    06:00 +17°C° 0 mm 2 m/s 759 mmHg 90%
    07:00 +18°C° 0 mm 2 m/s 759 mmHg 83%
    08:00 +20°C° 0 mm 1 m/s 759 mmHg 77%
    09:00 +22°C° 0 mm 1 m/s 759 mmHg 71%
    10:00 +22°C° 0 mm 1 m/s 760 mmHg 68%
    11:00 +23°C° 0 mm 1 m/s 760 mmHg 65%
    12:00 +24°C° 0 mm 2 m/s 760 mmHg 62%
    13:00 +24°C° 0 mm 2 m/s 760 mmHg 61%
    14:00 +25°C° 0 mm 2 m/s 759 mmHg 60%
    15:00 +25°C° 0 mm 2 m/s 759 mmHg 59%
    16:00 +25°C° 0 mm 2 m/s 759 mmHg 62%
    17:00 +24°C° 0 mm 2 m/s 759 mmHg 64%
    18:00 +24°C° 0 mm 2 m/s 759 mmHg 67%
    19:00 +23°C° 0 mm 2 m/s 760 mmHg 71%
    20:00 +21°C° 0 mm 2 m/s 760 mmHg 76%
    21:00 +20°C° 0 mm 2 m/s 760 mmHg 80%
    22:00 +19°C° 0 mm 2 m/s 760 mmHg 82%
    23:00 +19°C° 0 mm 2 m/s 760 mmHg 83%

    21 August, Marţi

    Timp Temperatura Precipitaţii Vânt Presiune Umiditate
    00:00 +18°C° 0 mm 2 m/s 760 mmHg 85%
    01:00 +18°C° 0 mm 2 m/s 760 mmHg 85%
    02:00 +19°C° 0 mm 1 m/s 760 mmHg 85%
    03:00 +19°C° 0 mm 1 m/s 760 mmHg 85%
    04:00 +19°C° 0 mm 1 m/s 760 mmHg 85%
    05:00 +19°C° 0 mm 1 m/s 760 mmHg 85%
    06:00 +19°C° 0 mm 1 m/s 760 mmHg 85%
    07:00 +19°C° 0,1 mm 2 m/s 760 mmHg 80%
    08:00 +20°C° 0,1 mm 2 m/s 760 mmHg 75%
    09:00 +21°C° 0,1 mm 2 m/s 760 mmHg 71%
    10:00 +22°C° 0 mm 3 m/s 760 mmHg 66%
    11:00 +24°C° 0 mm 3 m/s 760 mmHg 60%
    12:00 +25°C° 0 mm 3 m/s 760 mmHg 55%
    13:00 +25°C° 0 mm 3 m/s 760 mmHg 55%
    14:00 +26°C° 0 mm 4 m/s 759 mmHg 54%
    15:00 +26°C° 0 mm 4 m/s 759 mmHg 54%
    16:00 +25°C° 0 mm 4 m/s 759 mmHg 56%
    17:00 +25°C° 0 mm 3 m/s 759 mmHg 59%
    18:00 +24°C° 0 mm 3 m/s 759 mmHg 62%
    19:00 +22°C° 0 mm 3 m/s 759 mmHg 67%
    20:00 +21°C° 0 mm 3 m/s 759 mmHg 71%
    21:00 +20°C° 0 mm 2 m/s 760 mmHg 76%
    22:00 +19°C° 0 mm 2 m/s 760 mmHg 78%
    23:00 +19°C° 0 mm 2 m/s 760 mmHg 80%

    22 August, Miercuri

    Timp Temperatura Precipitaţii Vânt Presiune Umiditate
    00:00 +19°C° 0 mm 2 m/s 760 mmHg 82%
    01:00 +18°C° 0 mm 2 m/s 759 mmHg 84%
    02:00 +18°C° 0 mm 2 m/s 759 mmHg 86%
    03:00 +18°C° 0 mm 3 m/s 759 mmHg 88%
    04:00 +18°C° 0 mm 3 m/s 759 mmHg 88%
    05:00 +18°C° 0 mm 3 m/s 759 mmHg 89%
    06:00 +18°C° 0 mm 3 m/s 759 mmHg 89%
    07:00 +19°C° 0 mm 3 m/s 759 mmHg 83%
    08:00 +21°C° 0 mm 3 m/s 759 mmHg 76%
    09:00 +22°C° 0 mm 3 m/s 759 mmHg 69%
    10:00 +24°C° 0 mm 3 m/s 759 mmHg 66%
    11:00 +25°C° 0 mm 3 m/s 759 mmHg 62%
    12:00 +26°C° 0 mm 3 m/s 759 mmHg 59%
    13:00 +26°C° 0 mm 3 m/s 759 mmHg 58%
    14:00 +26°C° 0 mm 4 m/s 758 mmHg 58%
    15:00 +27°C° 0 mm 4 m/s 758 mmHg 57%
    16:00 +26°C° 0 mm 4 m/s 758 mmHg 59%
    17:00 +26°C° 0 mm 4 m/s 758 mmHg 61%
    18:00 +25°C° 0 mm 4 m/s 758 mmHg 63%
    19:00 +23°C° 0 mm 4 m/s 758 mmHg 68%
    20:00 +22°C° 0 mm 3 m/s 758 mmHg 73%
    21:00 +21°C° 0 mm 3 m/s 758 mmHg 78%
    22:00 +20°C° 0 mm 3 m/s 758 mmHg 80%
    23:00 +20°C° 0 mm 3 m/s 758 mmHg 83%

    23 August, Joi

    Timp Temperatura Precipitaţii Vânt Presiune Umiditate
    00:00 +19°C° 0 mm 3 m/s 758 mmHg 85%
    01:00 +19°C° 0 mm 3 m/s 757 mmHg 87%
    02:00 +18°C° 0 mm 3 m/s 757 mmHg 89%
    03:00 +18°C° 0 mm 3 m/s 757 mmHg 90%
    04:00 +18°C° 0 mm 3 m/s 756 mmHg 90%
    05:00 +18°C° 0 mm 3 m/s 756 mmHg 90%
    06:00 +18°C° 0 mm 4 m/s 756 mmHg 89%
    07:00 +19°C° 0 mm 4 m/s 756 mmHg 83%
    08:00 +21°C° 0 mm 5 m/s 756 mmHg 76%
    09:00 +22°C° 0 mm 5 m/s 756 mmHg 69%
    10:00 +23°C° 0 mm 5 m/s 755 mmHg 66%
    11:00 +25°C° 0 mm 5 m/s 755 mmHg 62%
    12:00 +24°C° 0 mm 6 m/s 754 mmHg 59%
    13:00 +26°C° 0 mm 6 m/s 754 mmHg 58%
    14:00 +26°C° 0 mm 6 m/s 754 mmHg 57%
    15:00 +26°C° 0 mm 5 m/s 753 mmHg 56%
    16:00 +25°C° 0 mm 5 m/s 753 mmHg 59%
    17:00 +25°C° 0 mm 5 m/s 753 mmHg 61%
    18:00 +23°C° 0 mm 4 m/s 752 mmHg 64%
    19:00 +22°C° 0 mm 4 m/s 752 mmHg 67%
    20:00 +21°C° 0 mm 3 m/s 752 mmHg 71%
    21:00 +20°C° 0 mm 3 m/s 752 mmHg 75%
    22:00 +19°C° 0 mm 3 m/s 752 mmHg 77%
    23:00 +19°C° 0 mm 3 m/s 752 mmHg 79%
    Arată mai mult